Monatsübersicht für Juli 2018

 
Wetter
Zeitraffer
Tageslänge (hh:mm)
Höchsttemperatur in °C
Uhrzeit
Tiefsttemperatur in °C
Uhrzeit
Luftfeuchte (max., in %)
Uhrzeit
Luftfeuchte (min., in %)
Uhrzeit
Luftdruck (max., in hPa)
Uhrzeit
Luftdruck (min., in hPa)
Uhrzeit
Luftdruck (Ø, in hPa)
Regenrate (max, mm/h)
Uhrzeit
Niederschlag in mm
Verdunstung in mm
Solar in W/m² (Ø)
Solar in W/m² (max.)
UV-Index (max.)
Sonnenscheindauer (hh:mm)
Windrichtung (Ø)
Windstärke (Ø in km/h)
Windstärke (Ø in bft)
Windböe (max., in km/h)
Uhrzeit
Windböe (max., in bft)
Uhrzeit
Taupunkt (max., in °C)
Uhrzeit
Taupunkt (min., in °C)
Uhrzeit
Windchill (min., in °C)
Uhrzeit
Gewitterindex (max.)
Uhrzeit
01
16:49
23.1
13:55 Uhr
9.4
05:05 Uhr

83
04:55 Uhr
28
13:35 Uhr
1022.7
07:20 Uhr

1020.0
18:35 Uhr
1021.4
0,000
00:00 Uhr
0,000
4.902
358
1083
11:45 Uhr
6.3
12:20 Uhr

09:55:00
7,7
2
33,8
13:30 Uhr

5
9.6
08:00 Uhr
2.6
13:45 Uhr
9.4
05:05 Uhr
0
00:00 Uhr
02
16:48
26.3
16:10 Uhr
5.8
05:00 Uhr

92
04:20 Uhr
25
16:15 Uhr
1020.7
00:05 Uhr

1016.3
19:55 Uhr
1018.6
0,000
00:00 Uhr
0,000
5.055
383
1150
13:35 Uhr
7.0
13:30 Uhr

09:55:00
4,9
1
29,0
16:10 Uhr

4
9.3
07:25 Uhr
4.1
16:40 Uhr
5.8
05:00 Uhr
0
00:00 Uhr
03
16:46
29.4
14:35 Uhr
8.1
05:05 Uhr

87
04:15 Uhr
19
13:45 Uhr
1017.1
00:15 Uhr

1014.4
19:05 Uhr
1016.0
0,000
00:00 Uhr
0,000
6.553
486
895
12:55 Uhr
7.2
13:00 Uhr

14:05:00
4,8
1
29,0
11:05 Uhr

4
9.9
08:00 Uhr
2.8
14:10 Uhr
8.1
05:05 Uhr
2
23:00 Uhr
04
16:45
32.5
16:00 Uhr
11.5
05:15 Uhr

79
05:35 Uhr
18
16:15 Uhr
1015.5
02:50 Uhr

1011.4
20:35 Uhr
1013.8
0,000
00:00 Uhr
0,000
6.375
473
878
12:55 Uhr
7.1
12:55 Uhr

14:00:00
3,0
1
22,5
12:10 Uhr

4
10.6
07:20 Uhr
5.1
16:15 Uhr
11.5
05:15 Uhr
4
22:25 Uhr
05
16:43
32.7
14:55 Uhr
13.5
05:20 Uhr

81
05:05 Uhr
30
14:20 Uhr
1012.3
23:45 Uhr

1009.2
18:10 Uhr
1010.8
0,000
00:00 Uhr
0,000
6.147
429
914
14:35 Uhr
6.5
13:40 Uhr

12:45:00
4,9
1
29,0
14:20 Uhr

4
13.8
15:40 Uhr
9.0
02:40 Uhr
13.5
05:20 Uhr
7
22:55 Uhr
06
16:42
24.2
16:50 Uhr
15.3
02:30 Uhr

84
02:35 Uhr
42
20:15 Uhr
1018.1
23:45 Uhr

1012.3
00:00 Uhr
1015.1
0,000
00:00 Uhr
0,000
3.531
229
830
16:35 Uhr
4.9
15:20 Uhr

04:15:00
8,1
2
33,8
14:55 Uhr

5
13.9
14:20 Uhr
7.4
23:20 Uhr
14.4
08:05 Uhr
7
00:00 Uhr
07
16:40
27.3
15:55 Uhr
10.3
05:05 Uhr

86
05:15 Uhr
27
14:55 Uhr
1019.8
07:50 Uhr

1018.0
19:05 Uhr
1018.9
0,000
00:00 Uhr
0,000
6.172
444
1174
12:35 Uhr
8.1
13:25 Uhr

13:34:00
8,3
2
35,4
12:30 Uhr

5
10.9
09:20 Uhr
5.8
14:55 Uhr
10.3
05:05 Uhr
3
22:30 Uhr
08
16:38
27.9
16:45 Uhr
14.5
05:55 Uhr

77
05:45 Uhr
44
18:20 Uhr
1020.7
12:55 Uhr

1019.0
19:00 Uhr
1019.8
0,000
00:00 Uhr
0,000
4.547
329
987
13:55 Uhr
7.0
13:50 Uhr

08:30:00
7,2
2
29,0
19:00 Uhr

4
16.3
13:55 Uhr
10.3
00:05 Uhr
12.5
06:20 Uhr
7
13:30 Uhr
09
16:37
24.6
13:30 Uhr
14.2
03:40 Uhr

87
05:30 Uhr
39
11:40 Uhr
1020.0
00:10 Uhr

1015.3
19:20 Uhr
1018.2
0,000
00:00 Uhr
0,000
4.623
335
949
12:35 Uhr
7.1
13:05 Uhr

07:30:00
7,6
2
32,2
13:45 Uhr

5
13.1
14:50 Uhr
8.0
23:45 Uhr
14.1
07:35 Uhr
6
00:00 Uhr
10
16:35
20.8
12:50 Uhr
12.1
05:40 Uhr

91
23:50 Uhr
48
12:50 Uhr
1017.1
00:30 Uhr

1015.4
18:05 Uhr
1016.0
2,400
23:15 Uhr
1,000
2.718
252
1106
12:15 Uhr
6.2
12:15 Uhr

03:20:00
3,1
1
20,9
15:20 Uhr

4
12.8
23:50 Uhr
8.0
00:10 Uhr
12.1
05:40 Uhr
5
23:00 Uhr
11
16:33
25.1
14:55 Uhr
13.7
02:05 Uhr

98
04:20 Uhr
48
14:25 Uhr
1016.3
00:00 Uhr

1013.3
16:40 Uhr
1014.4
36,000
22:45 Uhr
33,000
3.531
355
1122
12:55 Uhr
6.7
12:45 Uhr

06:40:00
3,1
1
22,5
16:55 Uhr

4
16.7
18:35 Uhr
11.9
13:05 Uhr
13.6
21:45 Uhr
8
18:20 Uhr
12
16:31
19.4
13:10 Uhr
14.1
00:40 Uhr

99
06:40 Uhr
85
13:10 Uhr
1015.3
23:45 Uhr

1009.8
07:00 Uhr
1012.9
36,000
07:00 Uhr
61,600
0.991
113
642
12:40 Uhr
4.3
12:40 Uhr

00:45:00
6,1
1
33,8
15:10 Uhr

5
17.4
12:40 Uhr
13.4
00:10 Uhr
10.5
06:50 Uhr
10
22:15 Uhr
13
16:29
28.7
15:40 Uhr
13.9
06:00 Uhr

99
05:00 Uhr
45
15:45 Uhr
1018.1
23:00 Uhr

1015.3
00:00 Uhr
1016.7
2,400
01:40 Uhr
0,200
4.191
356
953
13:10 Uhr
7.0
13:00 Uhr

07:55:00
6,1
1
33,8
14:10 Uhr

5
17.4
12:25 Uhr
12.9
20:35 Uhr
13.9
06:00 Uhr
10
00:00 Uhr
14
16:27
25.7
15:35 Uhr
14.4
23:45 Uhr

96
04:30 Uhr
49
15:35 Uhr
1019.7
10:50 Uhr

1017.6
18:00 Uhr
1018.6
0,000
00:00 Uhr
0,000
5.105
448
857
13:15 Uhr
6.8
13:10 Uhr

10:55:00
6,4
1
29,0
12:00 Uhr

4
15.4
10:00 Uhr
11.2
23:45 Uhr
13.6
07:25 Uhr
8
00:00 Uhr
15
16:24
27.1
15:35 Uhr
8.9
05:15 Uhr

95
05:20 Uhr
39
15:05 Uhr
1018.9
00:25 Uhr

1015.3
19:15 Uhr
1017.5
0,000
00:00 Uhr
0,000
4.699
416
1128
12:45 Uhr
7.3
13:20 Uhr

10:35:00
3,4
1
22,5
10:15 Uhr

4
13.9
21:25 Uhr
8.0
05:15 Uhr
8.9
05:15 Uhr
7
22:10 Uhr


 
Wetter
Zeitraffer
Tageslänge (hh:mm)
Höchsttemperatur in °C
Uhrzeit
Tiefsttemperatur in °C
Uhrzeit
Luftfeuchte (max., in %)
Uhrzeit
Luftfeuchte (min., in %)
Uhrzeit
Luftdruck (max., in hPa)
Uhrzeit
Luftdruck (min., in hPa)
Uhrzeit
Luftdruck (Ø, in hPa)
Regenrate (max, mm/h)
Uhrzeit
Niederschlag in mm
Verdunstung in mm
Solar in W/m² (Ø)
Solar in W/m² (max.)
UV-Index (max.)
Sonnenscheindauer (hh:mm)
Windrichtung (Ø)
Windstärke (Ø in km/h)
Windstärke (Ø in bft)
Windböe (max., in km/h)
Uhrzeit
Windböe (max., in bft)
Uhrzeit
Taupunkt (max., in °C)
Uhrzeit
Taupunkt (min., in °C)
Uhrzeit
Windchill (min., in °C)
Uhrzeit
Gewitterindex (max.)
Uhrzeit
16
16:22
30.7
14:55 Uhr
12.2
05:00 Uhr

96
05:10 Uhr
34
16:25 Uhr
1016.6
00:15 Uhr

1011.5
19:25 Uhr
1014.2
0,000
00:00 Uhr
0,000
5.537
460
912
14:35 Uhr
6.8
12:50 Uhr

14:30:00
3,2
1
27,4
21:10 Uhr

4
15.8
08:10 Uhr
11.4
05:00 Uhr
12.2
05:00 Uhr
9
22:10 Uhr
17
16:20
31.4
14:10 Uhr
16.7
01:25 Uhr

87
02:15 Uhr
33
15:30 Uhr
1012.5
00:00 Uhr

1010.8
16:35 Uhr
1011.7
0,000
00:00 Uhr
0,000
5.512
410
946
14:10 Uhr
7.1
13:30 Uhr

09:45:00
6,0
1
33,8
14:15 Uhr

5
16.9
18:00 Uhr
12.6
15:30 Uhr
16.7
01:25 Uhr
10
22:10 Uhr
18
16:17
28.8
15:30 Uhr
19.4
06:00 Uhr

82
05:55 Uhr
41
15:40 Uhr
1015.5
23:40 Uhr

1011.6
02:50 Uhr
1013.6
0,000
00:00 Uhr
0,000
5.029
356
851
15:15 Uhr
6.4
13:05 Uhr

08:50:00
8,5
2
37,0
11:50 Uhr

5
16.7
02:50 Uhr
12.4
11:25 Uhr
17.8
07:15 Uhr
11
02:50 Uhr
19
16:14
26.4
17:50 Uhr
14.1
23:50 Uhr

87
09:55 Uhr
42
18:20 Uhr
1017.3
13:15 Uhr

1015.3
03:20 Uhr
1016.2
0,000
00:00 Uhr
0,000
2.692
181
600
16:05 Uhr
4.0
16:00 Uhr

03:35:00
6,2
1
25,7
11:50 Uhr

4
16.5
09:50 Uhr
9.5
21:30 Uhr
14.1
23:50 Uhr
8
09:50 Uhr
20
16:12
29.1
15:50 Uhr
9.6
04:55 Uhr

91
04:35 Uhr
33
15:05 Uhr
1016.9
00:30 Uhr

1012.8
18:50 Uhr
1015.0
0,000
00:00 Uhr
0,000
5.105
415
964
13:45 Uhr
6.3
13:05 Uhr

11:10:00
3,8
1
33,8
13:10 Uhr

5
13.7
09:00 Uhr
8.1
04:55 Uhr
9.6
04:55 Uhr
5
08:50 Uhr
21
16:09
29.3
16:15 Uhr
9.9
05:20 Uhr

90
05:35 Uhr
34
13:15 Uhr
1013.8
00:20 Uhr

1011.5
20:35 Uhr
1012.8
0,000
00:00 Uhr
0,000
4.902
401
856
12:45 Uhr
6.0
12:40 Uhr

11:25:00
3,2
1
20,9
15:00 Uhr

4
13.5
21:15 Uhr
8.1
04:30 Uhr
9.9
05:20 Uhr
6
22:00 Uhr
22
16:07
27.9
12:35 Uhr
14.1
05:40 Uhr

84
05:35 Uhr
37
12:35 Uhr
1014.5
23:40 Uhr

1012.2
02:25 Uhr
1013.0
0,000
00:00 Uhr
0,000
3.327
289
852
11:20 Uhr
5.1
12:15 Uhr

05:45:00
1,6
0
12,9
11:20 Uhr

2
17.5
20:45 Uhr
11.2
02:35 Uhr
14.1
05:40 Uhr
9
20:45 Uhr
23
16:03
29.8
15:25 Uhr
15.8
03:45 Uhr

94
04:30 Uhr
38
17:40 Uhr
1016.6
23:20 Uhr

1014.4
00:10 Uhr
1015.4
0,000
00:00 Uhr
0,000
5.639
455
880
14:25 Uhr
6.7
13:00 Uhr

12:40:00
5,2
1
29,0
12:15 Uhr

4
16.9
09:15 Uhr
12.4
18:35 Uhr
15.8
03:45 Uhr
9
00:00 Uhr
24
16:01
31.8
15:35 Uhr
12.9
05:05 Uhr

91
05:05 Uhr
40
15:45 Uhr
1017.0
07:35 Uhr

1014.0
18:50 Uhr
1015.8
0,000
00:00 Uhr
0,000
4.318
353
1127
12:35 Uhr
7.6
13:15 Uhr

10:25:00
2,2
1
17,7
15:30 Uhr

3
17.1
14:05 Uhr
11.4
05:00 Uhr
12.9
05:05 Uhr
11
21:55 Uhr
25
15:57
33.7
15:25 Uhr
16.8
04:55 Uhr

89
03:35 Uhr
33
15:25 Uhr
1016.5
23:45 Uhr

1014.3
18:10 Uhr
1015.4
0,000
00:00 Uhr
0,000
5.359
425
949
13:25 Uhr
7.2
13:20 Uhr

12:35:00
3,1
1
24,1
16:00 Uhr

4
18.2
07:40 Uhr
14.5
12:35 Uhr
16.8
04:55 Uhr
11
00:00 Uhr
26
15:55
34.1
15:35 Uhr
15.3
05:10 Uhr

94
05:15 Uhr
30
14:00 Uhr
1018.1
11:20 Uhr

1015.7
18:30 Uhr
1016.9
0,000
00:00 Uhr
0,000
5.994
441
854
12:35 Uhr
6.6
12:40 Uhr

12:50:00
5,7
1
29,0
17:30 Uhr

4
18.7
10:10 Uhr
12.3
23:10 Uhr
15.3
05:10 Uhr
10
00:00 Uhr
27
15:51
32.6
16:05 Uhr
18.7
05:00 Uhr

90
05:40 Uhr
40
14:40 Uhr
1017.4
00:00 Uhr

1013.1
17:55 Uhr
1015.4
0,000
00:00 Uhr
0,000
5.588
419
939
13:15 Uhr
6.3
12:55 Uhr

10:30:00
7,0
1
30,6
17:10 Uhr

5
20.7
19:25 Uhr
13.0
00:00 Uhr
18.6
03:35 Uhr
14
21:50 Uhr
28
15:49
31.3
17:15 Uhr
18.6
02:45 Uhr

95
23:35 Uhr
42
18:10 Uhr
1013.1
00:00 Uhr

1007.3
18:50 Uhr
1010.2
16,800
20:55 Uhr
5,600
5.283
448
874
13:30 Uhr
6.1
13:05 Uhr

12:10:00
6,8
1
40,2
20:00 Uhr

5
19.3
08:55 Uhr
15.8
13:40 Uhr
18.6
02:45 Uhr
13
00:00 Uhr
29
15:45
30.9
15:50 Uhr
18.2
06:20 Uhr

96
00:05 Uhr
37
15:55 Uhr
1017.0
10:40 Uhr

1011.7
00:25 Uhr
1015.2
0,000
00:00 Uhr
0,000
4.826
430
843
11:25 Uhr
6.6
13:10 Uhr

11:30:00
4,4
1
24,1
02:35 Uhr

4
19.4
08:55 Uhr
13.0
13:25 Uhr
15.8
06:40 Uhr
13
00:00 Uhr
30
15:42
31.3
14:10 Uhr
18.1
02:40 Uhr

85
02:40 Uhr
32
18:05 Uhr
1017.9
23:15 Uhr

1016.3
01:10 Uhr
1016.9
0,000
00:00 Uhr
0,000
5.385
395
850
11:20 Uhr
7.0
13:50 Uhr

09:20:00
5,7
1
25,7
15:35 Uhr

4
19.4
10:40 Uhr
11.1
20:35 Uhr
18.1
02:40 Uhr
10
00:00 Uhr
31
15:39
34.8
16:00 Uhr
19.1
04:25 Uhr

73
06:05 Uhr
27
14:20 Uhr
1017.9
00:55 Uhr

1015.3
18:20 Uhr
1016.7
0,000
00:00 Uhr
0,000
6.299
441
810
13:05 Uhr
6.7
12:55 Uhr

12:25:00
5,5
1
24,1
13:35 Uhr

4
17.5
09:45 Uhr
11.3
14:20 Uhr
19.1
04:25 Uhr
10
22:55 Uhr